User: anonymous   Login
Location: Unspecified
(0.0000°N, 0.0000°E)
Time: 19:12:02
(UTC+01:00)
Language:

ARIANE 5 R/B - Orbit

View from above orbital plane
View from above orbital plane
View from above satellite
View from above satellite

Ground track
Ground track

The orbit data is extracted from the following two-line orbital elements,

1 28886U 05041C   15025.48156299 -.00000083  00000-0  59609-3 0  6642
2 28886 008.1961 334.6331 7191326 168.1618 009.0342 02.24315073 76112
Epoch (UTC): 25 January 2015 11:33:27
Eccentricity: 0.7191326
inclination: 8.1961°
perigee height: 545 km
apogee height: 35999 km
right ascension of ascending node: 334.6331°
argument of perigee: 168.1618°
revolutions per day: 2.24315073
mean anomaly at epoch: 9.0342°
orbit number at epoch: 7611

The dashed part of the orbit path shows where the satellite is in the earth's shadow,  

DLR